User: anonymous   Login
Location: Unspecified
(0.0000°N, 0.0000°E)
Time: 04:43:36
(UTC+00:00)
Language:

HEATHSAT - Orbit

View from above orbital plane
View from above orbital plane
View from above satellite
View from above satellite

Ground track
Ground track

The orbit data is extracted from the following two-line orbital elements,

1 22827U 93061E   18344.02284163  .00000010  00000-0  21386-4 0  9991
2 22827  98.8790 330.2566 0009511 142.0664 259.4813 14.31277588315386
Epoch (UTC): 10 December 2018 00:32:53
Eccentricity: 0.0009511
inclination: 98.8790°
perigee height: 780 km
apogee height: 794 km
right ascension of ascending node: 330.2566°
argument of perigee: 142.0664°
revolutions per day: 14.31277588
mean anomaly at epoch: 259.4813°
orbit number at epoch: 31538

The dashed part of the orbit path shows where the satellite is in the earth's shadow,  

DLR